Location: Newark
(35.6799°N, 139.7636°E)
Time: 14:18:04
(UTC+00:00)

Courier 1B - Pass Details

Date: 11 December 2019
Orbit: 962 x 1209 km, 28.3° (Epoch: 17 January)

Event Time Altitude Azimuth Distance (km) Brightness Sun altitude
Rises 10:06:57 0° 218° (SW) 3,810 11.2 -31.5°
Reaches altitude 10° 10:10:12 10° 205° (SSW) 2,901 10.3 -32.2°
Enters shadow 10:14:00 22° 174° (S) 2,216 9.3 -32.9°
